Flag for Germany Weather past 2 weeks in Nuremberg, Bavaria, Germany

Now
79 °F

Clear.


Feels Like: 80 °F
Forecast: 69 / 95 °F
Wind: 6 mph from East

Location: Nuernberg

Current Time: Jul 3, 2015 at 11:11:42 PM

Latest Report: Jul 3, 2015 at 10:50 PM


Visibility: 10 mi

Pressure: 30.21 "Hg

Humidity: 58%

Dew point: 63 °F

Location of NurembergLocation

Historic Weather in Nuremberg — Graph

°F

Nuremberg temperature yesterday

Maximum temperature yesterday: 91 °F (at 4:20 PM)
Minimum temperature yesterday: 64 °F (at 3:50 AM)
Average temperature yesterday: 79 °F

Past Weeks' High & Low Weather Summary

 TemperatureHumidityPressure
High93 °F (Jul 3, 3:50 PM)100% (Jun 22, 4:20 AM)30.27 "Hg (Jun 22, 4:20 AM)
Low45 °F (Jun 25, 5:20 AM)20% (Jun 30, 4:20 PM)29.71 "Hg (Jun 23, 12:20 AM)
Average64 °F68%30.10 "Hg
* Reported Jun 18 9:20 PM — Jul 3 9:50 PM, Nuremberg, Weather by CustomWeather, © 2015

Note: Actual official high and low records may vary slightly from our data, if they occured in-between our weather recording intervals... More about our weather records

Advertising

Nuremberg weather history for previous 24 hours

 ConditionsComfort  
Time TempWeatherWind HumidityBarometerVisibility
9:50 PM
Fri, Jul 3
81 °FSunny.6 mph54%30.21 "Hg10 mi
9:20 PM82 °FSunny.6 mph51%30.21 "Hg10 mi
8:50 PM84 °FSunny.6 mph48%30.21 "Hg10 mi
8:20 PM86 °FSunny.7 mph46%30.21 "Hg10 mi
7:50 PM86 °FSunny.9 mph43%30.21 "Hg10 mi
7:20 PM90 °FSunny.8 mph38%30.21 "Hg10 mi
6:50 PM90 °FSunny.12 mph36%30.21 "Hg10 mi
6:20 PM91 °FPassing clouds.9 mph32%30.21 "HgN/A
5:50 PM91 °FPassing clouds.9 mph32%30.21 "HgN/A
5:20 PM93 °FPassing clouds.8 mph30%30.21 "HgN/A
4:50 PM93 °FPassing clouds.7 mph28%30.21 "HgN/A
4:20 PM93 °FPassing clouds.7 mph28%30.21 "HgN/A
3:50 PM93 °FSunny.6 mph30%30.24 "Hg10 mi
3:20 PM91 °FPassing clouds.9 mph26%30.24 "HgN/A
2:50 PM91 °FPassing clouds.8 mph28%30.24 "HgN/A
2:20 PM91 °FPassing clouds.7 mph30%30.24 "HgN/A
1:50 PM91 °FSunny.7 mph28%30.24 "Hg10 mi
1:20 PM91 °FPassing clouds.8 mph28%30.27 "HgN/A
12:50 PM91 °FPassing clouds.7 mph28%30.27 "HgN/A
12:20 PM90 °FPassing clouds.8 mph31%30.27 "HgN/A
11:50 AM88 °FPassing clouds.9 mph35%30.27 "HgN/A
11:20 AM86 °FPassing clouds.9 mph38%30.27 "HgN/A
10:50 AM86 °FPassing clouds.7 mph40%30.27 "HgN/A
10:20 AM82 °FPassing clouds.10 mph42%30.27 "HgN/A
9:50 AM82 °FPassing clouds.8 mph45%30.27 "HgN/A
9:20 AM81 °FPassing clouds.7 mph48%30.27 "HgN/A
8:50 AM79 °FPassing clouds.6 mph51%30.27 "HgN/A
8:20 AM77 °FPassing clouds.5 mph57%30.27 "HgN/A
7:50 AM73 °FSunny.2 mph65%30.27 "Hg10 mi
7:20 AM72 °FSunny.1 mph69%30.24 "Hg10 mi
6:50 AM68 °FPassing clouds.6 mph78%30.24 "HgN/A
6:20 AM66 °FSunny.6 mph83%30.24 "Hg10 mi
5:50 AM66 °FClear.6 mph83%30.24 "Hg10 mi
5:20 AM64 °FClear.6 mph83%30.24 "Hg10 mi
4:50 AM66 °FClear.2 mph78%30.24 "Hg10 mi
4:20 AM66 °FClear.3 mph78%30.24 "Hg10 mi
3:50 AM68 °FClear.1 mph73%30.21 "Hg10 mi
3:20 AM68 °FClear.2 mph73%30.21 "Hg10 mi
2:50 AM68 °FClear.6 mph73%30.21 "Hg10 mi
2:20 AM66 °FClear.6 mph78%30.21 "Hg10 mi
1:50 AM70 °FClear.6 mph69%30.21 "Hg10 mi
1:20 AM70 °FClear.6 mph64%30.21 "Hg10 mi
12:50 AM72 °FClear.6 mph61%30.21 "Hg10 mi
12:20 AM72 °FClear.5 mph61%30.21 "Hg10 mi
11:50 PM
Thu, Jul 2
73 °FClear.5 mph57%30.21 "Hg10 mi
11:20 PM75 °FClear.5 mph54%30.21 "Hg10 mi
Weather by CustomWeather, © 2015

See weather overviewHow to use our weather pages